When you browse on this site, cookies collect data to enhance your experience and personalize the content and advertising you see.
Visit our Privacy Policy to learn more. By continuing to use the site, you agree to this use of cookies and data.
  • In Denmark
  • List of Countries
  • For 7 days
  • Water Temperature
  • Weather Map
  • Weather Widgets
  • user-avatar
    Login

    Hourly Weather Yerevan

    Today, 23 August, Friday

    Time Temperature Precipitation Wind Pressure Humidity
    00:00 +24°C° 0 mm 3 mps 688 mmHg 36%
    01:00 +24°C° 0 mm 3 mps 688 mmHg 37%
    02:00 +23°C° 0 mm 2 mps 689 mmHg 38%
    03:00 +21°C° 0 mm 2 mps 688 mmHg 41%
    04:00 +21°C° 0 mm 2 mps 688 mmHg 40%
    05:00 +21°C° 0 mm 2 mps 689 mmHg 40%
    06:00 +22°C° 0 mm 1 mps 689 mmHg 40%
    07:00 +25°C° 0 mm 1 mps 689 mmHg 34%
    08:00 +28°C° 0 mm 2 mps 690 mmHg 28%
    09:00 +32°C° 0 mm 2 mps 690 mmHg 21%
    10:00 +35°C° 0 mm 2 mps 690 mmHg 18%
    11:00 +37°C° 0 mm 2 mps 690 mmHg 15%
    12:00 +38°C° 0 mm 3 mps 690 mmHg 12%
    13:00 +39°C° 0 mm 3 mps 690 mmHg 11%
    14:00 +40°C° 0 mm 3 mps 690 mmHg 10%
    15:00 +42°C° 0 mm 4 mps 689 mmHg 8%
    16:00 +41°C° 0 mm 5 mps 689 mmHg 12%
    17:00 +39°C° 0 mm 6 mps 689 mmHg 15%
    18:00 +37°C° 0 mm 8 mps 689 mmHg 19%
    19:00 +33°C° 0 mm 6 mps 689 mmHg 26%
    20:00 +29°C° 0 mm 4 mps 689 mmHg 33%
    21:00 +26°C° 0 mm 2 mps 689 mmHg 40%
    22:00 +26°C° 0 mm 2 mps 689 mmHg 42%
    23:00 +25°C° 0 mm 2 mps 689 mmHg 43%

    Tomorrow, 24 August, Saturday

    Time Temperature Precipitation Wind Pressure Humidity
    00:00 +24°C° 0 mm 2 mps 689 mmHg 45%
    01:00 +23°C° 0 mm 2 mps 689 mmHg 46%
    02:00 +23°C° 0 mm 2 mps 689 mmHg 48%
    03:00 +22°C° 0 mm 1 mps 689 mmHg 50%
    04:00 +22°C° 0 mm 1 mps 689 mmHg 49%
    05:00 +22°C° 0 mm 1 mps 689 mmHg 48%
    06:00 +22°C° 0 mm 1 mps 690 mmHg 47%
    07:00 +25°C° 0 mm 1 mps 690 mmHg 41%
    08:00 +28°C° 0 mm 1 mps 691 mmHg 34%
    09:00 +31°C° 0 mm 1 mps 691 mmHg 27%
    10:00 +33°C° 0 mm 1 mps 691 mmHg 24%
    11:00 +35°C° 0 mm 1 mps 691 mmHg 21%
    12:00 +37°C° 0 mm 2 mps 691 mmHg 18%
    13:00 +37°C° 0 mm 1 mps 691 mmHg 16%
    14:00 +39°C° 0 mm 1 mps 691 mmHg 15%
    15:00 +40°C° 0 mm 1 mps 691 mmHg 13%
    16:00 +38°C° 0.1 mm 3 mps 691 mmHg 18%
    17:00 +36°C° 0.1 mm 6 mps 691 mmHg 22%
    18:00 +34°C° 0.1 mm 8 mps 690 mmHg 27%
    19:00 +30°C° 0.1 mm 7 mps 691 mmHg 33%
    20:00 +28°C° 0.1 mm 6 mps 691 mmHg 40%
    21:00 +26°C° 0.1 mm 5 mps 692 mmHg 46%
    22:00 +25°C° 0 mm 4 mps 691 mmHg 49%
    23:00 +24°C° 0 mm 3 mps 691 mmHg 51%

    Day after tomorrow, 25 August, Sunday

    Time Temperature Precipitation Wind Pressure Humidity
    00:00 +23°C° 0 mm 2 mps 691 mmHg 53%
    01:00 +23°C° 0 mm 2 mps 691 mmHg 55%
    02:00 +23°C° 0 mm 2 mps 691 mmHg 56%
    03:00 +22°C° 0 mm 1 mps 690 mmHg 57%
    04:00 +22°C° 0 mm 1 mps 690 mmHg 57%
    05:00 +22°C° 0 mm 1 mps 690 mmHg 57%
    06:00 +22°C° 0 mm 1 mps 690 mmHg 57%
    07:00 +25°C° 0 mm 1 mps 691 mmHg 49%
    08:00 +27°C° 0 mm 1 mps 691 mmHg 42%
    09:00 +30°C° 0 mm 2 mps 691 mmHg 35%
    10:00 +32°C° 0 mm 2 mps 691 mmHg 30%
    11:00 +34°C° 0 mm 1 mps 691 mmHg 26%
    12:00 +35°C° 0 mm 1 mps 691 mmHg 21%
    13:00 +36°C° 0 mm 1 mps 691 mmHg 19%
    14:00 +38°C° 0 mm 2 mps 690 mmHg 18%
    15:00 +39°C° 0 mm 2 mps 690 mmHg 16%
    16:00 +38°C° 0 mm 2 mps 690 mmHg 17%
    17:00 +38°C° 0 mm 2 mps 690 mmHg 18%
    18:00 +37°C° 0 mm 2 mps 690 mmHg 19%
    19:00 +35°C° 0 mm 3 mps 690 mmHg 25%
    20:00 +31°C° 0 mm 3 mps 690 mmHg 31%
    21:00 +29°C° 0 mm 4 mps 690 mmHg 37%
    22:00 +28°C° 0 mm 3 mps 690 mmHg 40%
    23:00 +27°C° 0 mm 2 mps 690 mmHg 42%

    26 August, Monday

    Time Temperature Precipitation Wind Pressure Humidity
    00:00 +26°C° 0 mm 2 mps 690 mmHg 45%
    01:00 +25°C° 0 mm 2 mps 690 mmHg 46%
    02:00 +25°C° 0 mm 2 mps 690 mmHg 47%
    03:00 +24°C° 0 mm 2 mps 690 mmHg 48%
    04:00 +24°C° 0 mm 1 mps 690 mmHg 49%
    05:00 +24°C° 0 mm 1 mps 690 mmHg 49%
    06:00 +24°C° 0 mm 1 mps 690 mmHg 50%
    07:00 +26°C° 0 mm 1 mps 690 mmHg 43%
    08:00 +29°C° 0 mm 1 mps 691 mmHg 37%
    09:00 +31°C° 0 mm 1 mps 691 mmHg 31%
    10:00 +33°C° 0 mm 1 mps 691 mmHg 27%
    11:00 +36°C° 0 mm 2 mps 691 mmHg 23%
    12:00 +38°C° 0 mm 2 mps 691 mmHg 20%
    13:00 +39°C° 0 mm 2 mps 691 mmHg 18%
    14:00 +40°C° 0 mm 3 mps 690 mmHg 16%
    15:00 +42°C° 0 mm 3 mps 690 mmHg 15%
    16:00 +38°C° 0.1 mm 3 mps 690 mmHg 19%
    17:00 +36°C° 0.1 mm 4 mps 690 mmHg 23%
    18:00 +34°C° 0.1 mm 5 mps 690 mmHg 28%
    19:00 +32°C° 0.4 mm 4 mps 690 mmHg 35%
    20:00 +29°C° 0.4 mm 3 mps 691 mmHg 42%
    21:00 +26°C° 0.4 mm 2 mps 691 mmHg 50%
    22:00 +26°C° 0.2 mm 2 mps 691 mmHg 52%
    23:00 +25°C° 0.2 mm 2 mps 691 mmHg 54%

    27 August, Tuesday

    Time Temperature Precipitation Wind Pressure Humidity
    00:00 +24°C° 0.2 mm 2 mps 691 mmHg 56%
    01:00 +23°C° 0 mm 1 mps 691 mmHg 58%
    02:00 +23°C° 0 mm 1 mps 691 mmHg 60%
    03:00 +22°C° 0 mm 1 mps 690 mmHg 62%
    04:00 +22°C° 0 mm 1 mps 690 mmHg 62%
    05:00 +22°C° 0 mm 1 mps 691 mmHg 62%
    06:00 +22°C° 0 mm 1 mps 691 mmHg 61%
    07:00 +24°C° 0 mm 1 mps 691 mmHg 54%
    08:00 +27°C° 0 mm 1 mps 691 mmHg 46%
    09:00 +29°C° 0 mm 2 mps 691 mmHg 38%
    10:00 +31°C° 0 mm 2 mps 691 mmHg 33%
    11:00 +34°C° 0 mm 2 mps 691 mmHg 27%
    12:00 +36°C° 0 mm 2 mps 691 mmHg 22%
    13:00 +37°C° 0 mm 3 mps 690 mmHg 20%
    14:00 +38°C° 0 mm 3 mps 690 mmHg 18%
    15:00 +40°C° 0 mm 4 mps 689 mmHg 16%
    16:00 +38°C° 0 mm 4 mps 689 mmHg 18%
    17:00 +37°C° 0 mm 4 mps 689 mmHg 20%
    18:00 +35°C° 0 mm 5 mps 689 mmHg 22%
    19:00 +33°C° 0 mm 4 mps 689 mmHg 28%
    20:00 +30°C° 0 mm 4 mps 689 mmHg 34%
    21:00 +27°C° 0 mm 3 mps 689 mmHg 40%
    22:00 +26°C° 0 mm 3 mps 689 mmHg 43%
    23:00 +26°C° 0 mm 2 mps 689 mmHg 45%

    28 August, Wednesday

    Time Temperature Precipitation Wind Pressure Humidity
    00:00 +25°C° 0 mm 2 mps 689 mmHg 48%
    01:00 +24°C° 0 mm 2 mps 688 mmHg 51%
    02:00 +23°C° 0 mm 2 mps 688 mmHg 53%
    03:00 +21°C° 0 mm 2 mps 688 mmHg 56%
    04:00 +21°C° 0 mm 2 mps 688 mmHg 57%
    05:00 +21°C° 0 mm 2 mps 688 mmHg 57%
    06:00 +21°C° 0 mm 2 mps 688 mmHg 57%
    07:00 +25°C° 0 mm 2 mps 689 mmHg 50%
    08:00 +27°C° 0 mm 2 mps 689 mmHg 43%
    09:00 +29°C° 0 mm 2 mps 690 mmHg 36%
    10:00 +31°C° 0 mm 3 mps 690 mmHg 31%
    11:00 +34°C° 0 mm 3 mps 690 mmHg 27%
    12:00 +36°C° 0 mm 3 mps 690 mmHg 22%
    13:00 +37°C° 0 mm 3 mps 689 mmHg 20%
    14:00 +38°C° 0 mm 4 mps 689 mmHg 18%
    15:00 +40°C° 0 mm 4 mps 689 mmHg 16%
    16:00 +37°C° 0 mm 4 mps 689 mmHg 18%
    17:00 +36°C° 0 mm 4 mps 689 mmHg 21%
    18:00 +35°C° 0 mm 5 mps 689 mmHg 23%
    19:00 +33°C° 0 mm 4 mps 689 mmHg 28%
    20:00 +29°C° 0 mm 3 mps 689 mmHg 34%
    21:00 +27°C° 0 mm 3 mps 689 mmHg 40%
    22:00 +26°C° 0 mm 3 mps 690 mmHg 42%
    23:00 +26°C° 0 mm 2 mps 690 mmHg 44%
    Show more